Regional Weather Roundup
Issued by NWS Sterling, VA

Home | Current Version | Previous Version | Graphics & Text | Print | Product List | Glossary On
Versions: 1 2 3 4 5 6 7 8 9 10 11 12 13 14 15 16 17 18 19 20 21 22 23 24 25 26 27 28 29 30 31 32 33 34 35 36 37 38 39 40 41 42 43 44 45 46 47 48 49 50
000
ASUS41 KLWX 210310
RWRLWX

REGIONAL WEATHER ROUNDUP
NATIONAL WEATHER SERVICE BALTIMORE MD/WASHINGTON DC
1000 PM EST MON FEB 20 2017

Note: "FAIR" indicates few or no clouds below 12,000 feet
with no significant weather and/or obstructions to visibility.
 TC=TEMPERATURE CELSIUS

 * =Non NWS site. Station does not report precipitation (e.g. rain,
    snow, etc.), thunder, or fog.

DCZ001-MDZ009-015-VAZ040>042-051-053>054-210400-
WASHINGTON METRO

CITY           SKY/WX    TMP DP  RH WIND       PRES   REMARKS
WASHINGTON NAT PTCLDY    50  30  46 NE7       30.29R
DULLES         CLOUDY    48  30  49 E6        30.28R
ANDREWS AFB    PTCLDY    46  29  51 NE8       30.28R
FT BELVOIR     CLEAR     51  30  45 CALM      30.28R
QUANTICO       CLOUDY    50  37  61 E3        30.29R
COLLEGE PARK*  CLEAR     48  27  43 CALM      30.29R
LEESBURG*      CLOUDY    48  34  57 MISG      30.31R
MANASSAS*      PTCLDY    43  32  65 CALM      30.29R
GAITHERSBURG*  PTCLDY    48  23  37 E3        30.32R

$$

MDZ006>007-011-014-210400-
BALTIMORE METRO

CITY           SKY/WX    TMP DP  RH WIND       PRES   REMARKS
BWI AIRPORT    PTCLDY    49  27  42 NE7       30.29R
MD SCIENCE CTR   N/A     52  26  36 MISG      30.30R
MARTIN STATE   CLEAR     45  30  57 CALM      30.32R
ANNAPOLIS      CLEAR     51  31  46 NE6       30.30R
FORT MEADE*    CLEAR     45  28  53 NE5       30.32R

$$

MDZ012-015-019>023-210400-
MARYLAND EASTERN SHORE

CITY           SKY/WX    TMP DP  RH WIND       PRES   REMARKS
OCEAN CITY     CLEAR     37  33  85 CALM      30.30R
SALISBURY      CLEAR     38  33  82 CALM      30.29R
BAY BRIDGE AP* CLEAR     50  28  43 CALM      30.30R
EASTON*        CLEAR     45  29  55 E5        30.33R

$$

MDZ017>025-210400-
SOUTHERN MARYLAND

CITY           SKY/WX    TMP DP  RH WIND       PRES   REMARKS
PATUXENT RIVER CLEAR     43  36  76 CALM      30.28R
ST INIGOES     CLEAR     43  34  70 CALM      30.28R
LEONARDTOWN*   CLEAR     46  32  57 CALM      30.30R

$$

MDZ003>005-210400-
NORTH CENTRAL MARYLAND

CITY           SKY/WX    TMP DP  RH WIND       PRES   REMARKS
FREDERICK*     PTCLDY    41  32  70 N5        30.33R
HAGERSTOWN APT PTCLDY    47  30  51 N7        30.28R
WESTMINSTER*   CLOUDY    46  27  46 E6        30.29R

$$

MDZ501>502-210400-
WESTERN MARYLAND

CITY           SKY/WX    TMP DP  RH WIND       PRES   REMARKS
OAKLAND*       CLOUDY    45  28  53 SE13      30.22F
CUMBERLAND*    PTCLDY    52  30  43 CALM      30.30R

$$

VAZ025>031-210400-
SHENANDOAH VALLEY

CITY           SKY/WX    TMP DP  RH WIND       PRES   REMARKS
WINCHESTER*    PTCLDY    43  30  61 CALM      30.28R
FRONT ROYAL*   CLOUDY    52  32  46 E6        30.26R
LURAY*         PTCLDY    50  37  62 N3        30.25R
NEW MARKET*    MOCLDY    53  32  45 N6        30.24R
STAUNTON*      PTCLDY    42  34  73 CALM      30.26R
WAYNESBORO*    MOCLDY    53  32  44 SE7       30.24R

$$

WVZ021-048>050-054>055-210400-
EASTERN WEST VIRGINIA PANHANDLE

CITY           SKY/WX    TMP DP  RH WIND       PRES   REMARKS
MARTINSBURG    PTCLDY    45  30  55 CALM      30.28R
PETERSBURG*    CLOUDY    45  39  79 CALM      30.25R

$$

VAZ036>039-050-210400-
CENTRAL FOOTHILLS

CITY           SKY/WX    TMP DP  RH WIND       PRES   REMARKS
CHARLOTTESVILL PTCLDY    52  37  56 N7        30.26R
CULPEPER*      PTCLDY    46  34  63 E3        30.29R
ORANGE*        CLOUDY    46  34  61 CALM      30.29R
GORDONSVILLE*  CLOUDY    43  37  80 NE5       30.27R
WARRENTON*     PTCLDY    42  31  63 CALM      30.28R

$$

VAZ055>057-210400-
NORTH AND CENTRAL PIEDMONT

CITY           SKY/WX    TMP DP  RH WIND       PRES   REMARKS
FREDERICKSBRG* PTCLDY    47  36  63 CALM      30.27R
STAFFORD*      PTCLDY    49  32  51 E3        30.32R

$$

NCZ024-NYZ072-PAZ021-071-VAZ022-071-210400-
OTHER REGIONAL OBSERVATIONS

CITY           SKY/WX    TMP DP  RH WIND       PRES   REMARKS
NEW YORK CITY  CLEAR     42  15  33 NE9G17    30.35S
PHILADELPHIA   CLEAR     47  10  22 NE15      30.33R
PITTSBURGH     MOCLDY    48  32  53 E5        30.19F
ROANOKE        CLOUDY    59  33  37 CALM      30.23R
RICHMOND       PTCLDY    51  37  58 E3        30.26R
RALEIGH        MOCLDY    51  39  63 CALM      30.22R

$$

ANZ530>537-210400-
MARINE OBSERVATIONS

STATION/POSITION TIME  TEMP    WIND        PRES
                       AIR SEA DIR/SP/G
                 (UTC) (F)     (DEG/KT/KT) (MB)
THOMAS PT LIGHT  0300   50 43   50/  9/ 10   N/A
BALT KEY BRIDGE  0248   50      30/  6/  7 1026.1R
COVE POINT       0248   50      70/  6/  6 1026.0R
LEWISETTA        0248   48 47   80/  4/  5 1025.1R
SOLOMONS ISLAND  0242   44 44  220/  3/  4   N/A
PINEY POINT      0248          130/  2/  2   N/A

$$




USA.gov is the U.S. government's official web portal to all federal, state and local government web resources and services.